GSAT0209 (GALILEO 12)

Last updated on Jan. 19, 2021, 6:22 a.m. UTC

1 41174U 15079A   21018.42600329  .00000027  00000-0  00000-0 0  9996
2 41174  55.0321 155.5644 0002718 327.0779  32.8613  1.70473673 31261
UTC
Height (km)
Latitude
Longitude
Inclination
Orbital Period
UTC large
Height (km)
Speed (km/s)
/
Latitude / Longitude
Inclination (degrees)
Orbital Period (minutes)
Azimuth
Elevation
Range (km)
Doppler Factor
iOS Compass Heading
iOS Angle

Next 30 passes for location: Hong Kong

Rise time Rise Azimuth (degrees) Set time Set Azimuth (degrees) Duration Max altitude (degrees)

No matching passes for this satellites